Fort Campbell, TN

2:12 PM CDT on July 28, 2016 (GMT -0500)
Outlaw

Weather History for KCKV - September, 2012

Change the Weather History Date:

Friday, September 7, 2012

  Actual Average Record
Temperature  
Mean Temperature 79 °F -  
Max Temperature 90 °F - 101 °F (1990)
Min Temperature 68 °F - 41 °F (1982)
Degree Days  
Heating Degree Days 0    
Month to date heating degree days  
Since 1 July heating degree days  
Cooling Degree Days 14    
Month to date cooling degree days  
Growing Degree Days 29 (Base 50)    
Moisture  
Dew Point 70 °F    
Average Humidity 76    
Maximum Humidity 94    
Minimum Humidity 55    
Precipitation  
Precipitation 0.32 in - 0.89 in (1990)
Month to date precipitation  
Sea Level Pressure  
Sea Level Pressure 29.85 in    
Wind  
Wind Speed 7 mph (SW)    
Max Wind Speed 22 mph    
Max Gust Speed 30 mph    
Visibility 9 miles    
Events Rain , Thunderstorm    
T = Trace of Precipitation, MM = Missing Value Source: NWS Daily Summary

Daily Weather History Graph

Daily Weather History Graph

Search for Another Location

Airport or City:

Trip Planner

Search our weather history database for the weather conditions in past years. The results will help you decide how hot, cold, wet, or windy it might be!

Date:

Astronomy

Sep. 07, 2012 Rise Set
Actual Time 6:25 AM CDT 7:08 PM CDT
Civil Twilight 5:59 AM CDT 7:34 PM CDT
Nautical Twilight 5:28 AM CDT 8:05 PM CDT
Astronomical Twilight 4:57 AM CDT 8:36 PM CDT
Moon 11:15 PM CDT (9/7) 1:06 PM CDT (9/7)
Length of Visible Light 13h 34m
Length of Day
12h 42m
Waning Gibbous, 58% of the Moon is Illuminated
Sep 7
Waning Gibbous
Sep 8
Last Quarter
Sep 15
New
Sep 22
First Quarter
Sep 29
Full

Hourly Weather History & Observations

Time (CDT) Temp. Heat Index Dew Point Humidity Pressure Visibility Wind Dir Wind Speed Gust Speed Precip Events Conditions
12:52 AM 71.1 °F - 66.9 °F 87% 29.93 in 10.0 mi North 11.5 mph - N/A   Clear
1:52 AM 71.1 °F - 68.0 °F 90% 29.92 in 10.0 mi Calm Calm - N/A   Scattered Clouds
2:52 AM 70.0 °F - 68.0 °F 93% 29.92 in 10.0 mi Calm Calm - N/A   Clear
3:52 AM 70.0 °F - 68.0 °F 93% 29.91 in 9.0 mi Calm Calm - N/A   Clear
4:52 AM 69.1 °F - 66.9 °F 93% 29.92 in 10.0 mi WSW 4.6 mph - N/A   Clear
5:52 AM 69.1 °F - 66.0 °F 90% 29.93 in 10.0 mi WSW 4.6 mph - N/A   Clear
6:52 AM 68.0 °F - 64.9 °F 90% 29.93 in 10.0 mi SW 4.6 mph - N/A   Clear
7:52 AM 71.1 °F - 66.0 °F 84% 29.94 in 10.0 mi WSW 5.8 mph - N/A   Clear
8:52 AM 75.0 °F - 66.9 °F 76% 29.94 in 10.0 mi Calm Calm - N/A   Clear
9:52 AM 79.0 °F - 69.1 °F 72% 29.95 in 10.0 mi South 5.8 mph - N/A   Mostly Cloudy
10:52 AM 82.0 °F 85.9 °F 70.0 °F 67% 29.94 in 10.0 mi WSW 6.9 mph - N/A   Partly Cloudy
11:52 AM 84.9 °F 90.7 °F 72.0 °F 65% 29.92 in 10.0 mi South 8.1 mph - N/A   Scattered Clouds
12:52 PM 87.1 °F 93.6 °F 72.0 °F 61% 29.88 in 10.0 mi SSW 8.1 mph - N/A   Clear
1:52 PM 89.1 °F 96.0 °F 72.0 °F 57% 29.86 in 10.0 mi SW 9.2 mph 16.1 mph N/A   Partly Cloudy
2:52 PM 90.0 °F 97.9 °F 73.0 °F 57% 29.84 in 10.0 mi Variable 5.8 mph - N/A   Partly Cloudy
3:52 PM 90.0 °F 96.9 °F 72.0 °F 55% 29.81 in 10.0 mi SSW 9.2 mph - N/A   Partly Cloudy
4:52 PM 89.1 °F 97.0 °F 73.0 °F 59% 29.77 in 10.0 mi SSW 11.5 mph - N/A   Partly Cloudy
5:52 PM 88.0 °F 92.9 °F 70.0 °F 55% 29.74 in 10.0 mi South 11.5 mph - N/A   Clear
6:52 PM 84.9 °F 90.7 °F 72.0 °F 65% 29.72 in 10.0 mi South 8.1 mph - N/A   Clear
7:52 PM 82.9 °F 88.0 °F 72.0 °F 69% 29.74 in 10.0 mi SSW 8.1 mph - N/A   Clear
8:52 PM 82.9 °F 88.0 °F 72.0 °F 69% 29.73 in 10.0 mi SSW 9.2 mph - N/A   Clear
9:52 PM 82.0 °F 86.3 °F 71.1 °F 69% 29.73 in 10.0 mi South 8.1 mph 17.3 mph N/A   Clear
10:47 PM 80.6 °F 84.6 °F 71.6 °F 74% 29.75 in 10.0 mi SSW 12.7 mph - 0.00 in Rain , Thunderstorm Light Thunderstorms and Rain
10:52 PM 81.0 °F 85.2 °F 72.0 °F 74% 29.74 in 10.0 mi South 9.2 mph - 0.00 in Thunderstorm Thunderstorm
11:46 PM 73.4 °F - 69.8 °F 88% 29.83 in 2.5 mi West 21.9 mph 29.9 mph 0.15 in Rain , Thunderstorm Heavy Thunderstorms and Rain
11:52 PM 70.0 °F - 68.0 °F 93% 29.80 in 1.0 mi West 18.4 mph 29.9 mph 0.32 in Rain , Thunderstorm Heavy Thunderstorms and Rain
11:58 PM 69.8 °F - 68.0 °F 94% 29.81 in 1.2 mi West 15.0 mph 27.6 mph 0.07 in Rain , Thunderstorm Heavy Thunderstorms and Rain